Year,Month,Day,Hour,Minute,Value (Times are PST for temperature in C)
2018,08,15,00,29,15.00
2018,08,15,00,30,14.90
2018,08,15,01,29,15.40
2018,08,15,01,30,15.30
2018,08,15,01,31,15.30
2018,08,15,01,32,15.20
2018,08,15,01,33,15.10
2018,08,15,01,34,15.00
2018,08,15,01,35,15.00
2018,08,15,01,36,14.90
2018,08,15,01,37,14.80
2018,08,15,01,38,14.80
2018,08,15,01,39,14.80
2018,08,15,01,40,14.70
2018,08,15,01,41,14.60
2018,08,15,01,42,14.60
2018,08,15,01,43,14.50
2018,08,15,01,44,14.50
2018,08,15,01,45,14.40
2018,08,15,01,46,14.30
2018,08,15,01,47,14.30
2018,08,15,01,48,14.20
2018,08,15,01,49,14.20
2018,08,15,01,50,14.20
2018,08,15,01,51,14.20
2018,08,15,01,52,14.20
2018,08,15,01,53,14.20
2018,08,15,01,54,14.20
2018,08,15,01,55,14.20
2018,08,15,01,56,14.20
2018,08,15,01,57,14.20
2018,08,15,01,58,14.20
2018,08,15,01,59,14.20
2018,08,15,02,00,14.20
2018,08,15,02,01,14.20
2018,08,15,02,02,14.20
2018,08,15,02,03,14.30
2018,08,15,02,04,14.30
2018,08,15,02,06,14.40
2018,08,15,02,07,14.40
2018,08,15,02,08,14.50
2018,08,15,02,09,14.50
2018,08,15,02,29,14.00
2018,08,15,02,30,14.00
2018,08,15,02,31,14.00
2018,08,15,02,32,14.00
2018,08,15,02,33,13.90
2018,08,15,02,34,13.90
2018,08,15,02,35,13.90
2018,08,15,02,36,13.80
2018,08,15,02,37,13.80
2018,08,15,02,38,13.80
2018,08,15,02,39,13.80
2018,08,15,02,40,13.80
2018,08,15,02,41,13.70
2018,08,15,02,42,13.70
2018,08,15,02,43,13.70
2018,08,15,02,44,13.70
2018,08,15,02,45,13.70
2018,08,15,02,46,13.70
2018,08,15,02,47,13.70
2018,08,15,02,48,13.70
2018,08,15,02,49,13.70
2018,08,15,02,50,13.70
2018,08,15,02,51,13.70
2018,08,15,02,52,13.70
2018,08,15,02,53,13.70
2018,08,15,02,54,13.70
2018,08,15,02,55,13.70
2018,08,15,02,56,13.70
2018,08,15,02,57,13.70
2018,08,15,02,58,13.70
2018,08,15,02,59,13.70
2018,08,15,03,00,13.70
2018,08,15,03,02,13.80
2018,08,15,03,03,13.80
2018,08,15,03,04,13.70
2018,08,15,03,29,13.70
2018,08,15,03,30,13.70
2018,08,15,03,31,13.70
2018,08,15,03,32,13.70
2018,08,15,03,33,13.70
2018,08,15,03,34,13.70
2018,08,15,03,35,13.70
2018,08,15,03,36,13.70
2018,08,15,03,37,13.70
2018,08,15,03,38,13.70
2018,08,15,03,39,13.70
2018,08,15,03,40,13.70
2018,08,15,03,41,13.70
2018,08,15,03,42,13.70
2018,08,15,03,43,13.70
2018,08,15,03,44,13.60
2018,08,15,03,45,13.60
2018,08,15,03,46,13.60
2018,08,15,03,47,13.60
2018,08,15,03,48,13.60
2018,08,15,03,49,13.60
2018,08,15,03,50,13.60
2018,08,15,03,51,13.60
2018,08,15,03,52,13.60
2018,08,15,03,53,13.60
2018,08,15,03,54,13.60
2018,08,15,03,55,13.60
2018,08,15,03,56,13.60
2018,08,15,03,57,13.60
2018,08,15,03,58,13.60
2018,08,15,03,59,13.60
2018,08,15,04,00,13.60
2018,08,15,04,02,13.50
2018,08,15,04,29,13.30
2018,08,15,04,30,13.30
2018,08,15,04,31,13.30
2018,08,15,04,32,13.30
2018,08,15,04,33,13.30
2018,08,15,04,34,13.30
2018,08,15,04,35,13.30
2018,08,15,04,36,13.30
2018,08,15,04,37,13.30
2018,08,15,04,38,13.30
2018,08,15,04,39,13.30
2018,08,15,04,40,13.30
2018,08,15,04,41,13.30
2018,08,15,04,42,13.30
2018,08,15,04,43,13.30
2018,08,15,04,44,13.30
2018,08,15,04,45,13.30
2018,08,15,04,46,13.30
2018,08,15,04,47,13.30
2018,08,15,04,48,13.30
2018,08,15,04,49,13.30
2018,08,15,04,50,13.30
2018,08,15,04,51,13.20
2018,08,15,04,52,13.20
2018,08,15,04,53,13.20
2018,08,15,04,54,13.20
2018,08,15,04,55,13.20
2018,08,15,04,56,13.30
2018,08,15,04,57,13.30
2018,08,15,04,58,13.30
2018,08,15,04,59,13.30
2018,08,15,05,00,13.30
2018,08,15,05,01,13.30
2018,08,15,05,02,13.30
2018,08,15,05,03,13.30
2018,08,15,05,04,13.20
2018,08,15,05,05,13.30
2018,08,15,05,07,13.20
2018,08,15,05,08,13.20
2018,08,15,05,09,13.20
2018,08,15,05,29,13.20
2018,08,15,05,30,13.20
2018,08,15,05,31,13.10
2018,08,15,05,32,13.10
2018,08,15,05,33,13.10
2018,08,15,05,34,13.10
2018,08,15,05,35,13.10
2018,08,15,05,36,13.00
2018,08,15,05,37,13.00
2018,08,15,05,38,13.00
2018,08,15,05,39,13.00
2018,08,15,05,40,12.90
2018,08,15,05,41,12.90
2018,08,15,05,42,12.90
2018,08,15,05,43,12.90
2018,08,15,05,44,12.90
2018,08,15,05,45,12.80
2018,08,15,05,46,12.80
2018,08,15,05,47,12.80
2018,08,15,05,48,12.80
2018,08,15,05,49,12.80
2018,08,15,05,50,12.80
2018,08,15,05,51,12.70
2018,08,15,05,52,12.70
2018,08,15,05,53,12.70
2018,08,15,05,54,12.60
2018,08,15,05,55,12.60
2018,08,15,05,56,12.60
2018,08,15,05,57,12.60
2018,08,15,05,58,12.60
2018,08,15,05,59,12.50
2018,08,15,06,00,12.50
2018,08,15,06,01,12.50
2018,08,15,06,02,12.50
2018,08,15,06,04,12.50
2018,08,15,06,29,12.30
2018,08,15,06,30,12.30
2018,08,15,07,29,13.10
2018,08,15,07,30,13.10
2018,08,15,07,31,13.10
2018,08,15,07,32,13.10
2018,08,15,07,33,13.10
2018,08,15,07,34,13.00
2018,08,15,07,35,13.00
2018,08,15,07,36,13.00
2018,08,15,07,37,13.00
2018,08,15,07,38,13.00
2018,08,15,07,39,12.90
2018,08,15,07,40,12.90
2018,08,15,07,41,12.90
2018,08,15,07,42,12.90
2018,08,15,07,43,12.90
2018,08,15,07,44,13.00
2018,08,15,07,45,13.00
2018,08,15,07,46,13.00
2018,08,15,07,47,13.00
2018,08,15,07,48,13.00
2018,08,15,07,49,13.00
2018,08,15,07,50,13.10
2018,08,15,07,51,13.10
2018,08,15,07,52,13.00
2018,08,15,07,53,13.00
2018,08,15,07,54,13.00
2018,08,15,07,55,13.00
2018,08,15,07,56,13.00
2018,08,15,07,57,13.00
2018,08,15,07,58,13.00
2018,08,15,07,59,13.10
2018,08,15,08,00,13.00
2018,08,15,08,02,13.10
2018,08,15,08,03,13.10
2018,08,15,08,04,13.10
2018,08,15,08,29,13.90
2018,08,15,08,30,13.90
2018,08,15,08,31,14.00
2018,08,15,08,32,14.00
2018,08,15,08,33,14.00
2018,08,15,08,34,14.10
2018,08,15,08,35,14.10
2018,08,15,08,36,14.20
2018,08,15,08,37,14.20
2018,08,15,08,38,14.20
2018,08,15,08,39,14.20
2018,08,15,08,40,14.30
2018,08,15,08,41,14.30
2018,08,15,08,42,14.40
2018,08,15,08,43,14.40
2018,08,15,08,44,14.50
2018,08,15,08,45,14.50
2018,08,15,08,46,14.60
2018,08,15,08,47,14.60
2018,08,15,08,48,14.70
2018,08,15,08,49,14.70
2018,08,15,08,50,14.80
2018,08,15,08,51,14.80
2018,08,15,08,52,14.80
2018,08,15,08,53,14.90
2018,08,15,08,54,15.00
2018,08,15,08,55,15.00
2018,08,15,08,56,15.10
2018,08,15,08,57,15.20
2018,08,15,08,58,15.30
2018,08,15,08,59,15.30
2018,08,15,09,00,15.30
2018,08,15,09,01,15.30
2018,08,15,09,02,15.40
2018,08,15,09,03,15.50
2018,08,15,09,04,15.50
2018,08,15,09,06,15.70
2018,08,15,09,29,16.60
2018,08,15,09,30,16.60
2018,08,15,09,31,16.60
2018,08,15,09,32,16.60
2018,08,15,09,33,16.70
2018,08,15,09,34,16.70
2018,08,15,09,35,16.70
2018,08,15,09,36,16.70
2018,08,15,09,37,16.80
2018,08,15,09,38,16.80
2018,08,15,09,39,16.90
2018,08,15,09,40,17.00
2018,08,15,09,41,17.00
2018,08,15,09,42,17.10
2018,08,15,09,43,17.10
2018,08,15,09,44,17.20
2018,08,15,09,45,17.20
2018,08,15,09,46,17.30
2018,08,15,09,47,17.30
2018,08,15,09,48,17.30
2018,08,15,09,49,17.30
2018,08,15,09,50,17.40
2018,08,15,09,51,17.40
2018,08,15,09,52,17.50
2018,08,15,09,53,17.50
2018,08,15,09,54,17.50
2018,08,15,09,55,17.50
2018,08,15,09,56,17.50
2018,08,15,09,57,17.60
2018,08,15,09,58,17.60
2018,08,15,09,59,17.60
2018,08,15,10,00,17.60
2018,08,15,10,01,17.60
2018,08,15,10,02,17.50
2018,08,15,10,04,17.50
2018,08,15,10,29,17.30
2018,08,15,10,30,17.30
2018,08,15,10,31,17.40
2018,08,15,10,32,17.40
2018,08,15,10,33,17.40
2018,08,15,10,34,17.50
2018,08,15,10,35,17.50
2018,08,15,10,36,17.60
2018,08,15,10,37,17.60
2018,08,15,10,38,17.60
2018,08,15,10,39,17.70
2018,08,15,10,40,17.80
2018,08,15,10,41,17.90
2018,08,15,10,42,18.10
2018,08,15,10,43,18.10
2018,08,15,10,44,18.20
2018,08,15,10,45,18.20
2018,08,15,10,46,18.20
2018,08,15,10,47,18.10
2018,08,15,10,48,18.10
2018,08,15,10,49,18.10
2018,08,15,10,50,17.90
2018,08,15,10,51,17.90
2018,08,15,10,52,17.90
2018,08,15,10,53,17.90
2018,08,15,10,54,17.90
2018,08,15,10,55,17.90
2018,08,15,10,56,17.90
2018,08,15,10,57,17.90
2018,08,15,10,58,18.10
2018,08,15,10,59,18.10
2018,08,15,11,01,18.20
2018,08,15,11,29,19.40
2018,08,15,11,30,19.30
2018,08,15,11,31,19.20
2018,08,15,11,32,19.10
2018,08,15,11,33,19.10
2018,08,15,11,34,19.10
2018,08,15,11,35,18.90
2018,08,15,11,36,18.90
2018,08,15,11,37,18.90
2018,08,15,11,38,18.90
2018,08,15,11,39,18.80
2018,08,15,11,40,18.80
2018,08,15,11,41,18.80
2018,08,15,11,42,18.70
2018,08,15,11,43,18.70
2018,08,15,11,44,18.70
2018,08,15,11,45,18.70
2018,08,15,11,46,18.70
2018,08,15,11,47,18.70
2018,08,15,11,48,18.70
2018,08,15,11,49,18.70
2018,08,15,11,50,18.70
2018,08,15,11,51,18.80
2018,08,15,11,52,18.80
2018,08,15,11,53,18.80
2018,08,15,11,54,18.90
2018,08,15,11,55,18.90
2018,08,15,11,56,18.90
2018,08,15,11,57,18.90
2018,08,15,11,58,18.90
2018,08,15,11,59,18.90
2018,08,15,12,00,18.90
2018,08,15,12,02,18.90
2018,08,15,12,29,20.10
2018,08,15,12,30,20.20
2018,08,15,13,29,21.30
2018,08,15,13,30,21.30
2018,08,15,13,31,21.30
2018,08,15,13,32,21.30
2018,08,15,13,33,21.30
2018,08,15,13,34,21.30
2018,08,15,13,35,21.30
2018,08,15,13,36,21.40
2018,08,15,13,37,21.40
2018,08,15,13,38,21.40
2018,08,15,13,39,21.60
2018,08,15,13,40,21.60
2018,08,15,13,41,21.60
2018,08,15,13,42,21.60
2018,08,15,13,43,21.60
2018,08,15,13,44,21.60
2018,08,15,13,45,21.60
2018,08,15,13,46,21.70
2018,08,15,13,47,21.60
2018,08,15,13,48,21.60
2018,08,15,13,49,21.60
2018,08,15,13,50,21.60
2018,08,15,13,51,21.60
2018,08,15,13,52,21.60
2018,08,15,13,53,21.60
2018,08,15,13,54,21.60
2018,08,15,13,55,21.60
2018,08,15,13,56,21.60
2018,08,15,13,57,21.60
2018,08,15,13,58,21.60
2018,08,15,13,59,21.60
2018,08,15,14,00,21.60
2018,08,15,14,01,21.60
2018,08,15,14,02,21.60
2018,08,15,14,04,21.60
2018,08,15,14,29,21.90
2018,08,15,14,30,22.00
2018,08,15,14,31,22.10
2018,08,15,14,32,22.10
2018,08,15,14,33,22.10
2018,08,15,14,34,22.10
2018,08,15,14,35,22.10
2018,08,15,14,36,22.10
2018,08,15,14,37,22.10
2018,08,15,14,38,22.10
2018,08,15,14,39,22.10
2018,08,15,14,40,22.10
2018,08,15,14,41,22.10
2018,08,15,14,42,22.10
2018,08,15,14,43,22.10
2018,08,15,14,44,22.10
2018,08,15,14,45,22.10
2018,08,15,14,46,22.10
2018,08,15,14,47,22.20
2018,08,15,14,48,22.20
2018,08,15,14,49,22.30
2018,08,15,14,50,22.40
2018,08,15,14,51,22.50
2018,08,15,14,52,22.50
2018,08,15,14,53,22.60
2018,08,15,14,54,22.70
2018,08,15,14,55,22.70
2018,08,15,14,56,22.80
2018,08,15,14,57,22.80
2018,08,15,14,58,22.90
2018,08,15,14,59,22.90
2018,08,15,15,00,22.90
2018,08,15,15,01,22.90
2018,08,15,15,02,22.80
2018,08,15,15,03,22.80
2018,08,15,15,04,22.80
2018,08,15,15,06,22.80
2018,08,15,15,07,22.80
2018,08,15,15,08,22.80
2018,08,15,15,09,22.80
2018,08,15,15,29,22.10
2018,08,15,15,30,22.10
2018,08,15,15,31,22.00
2018,08,15,15,32,22.00
2018,08,15,15,33,21.90
2018,08,15,15,34,21.70
2018,08,15,15,35,21.60
2018,08,15,15,36,21.60
2018,08,15,15,37,21.40
2018,08,15,15,38,21.30
2018,08,15,15,39,21.30
2018,08,15,15,40,21.20
2018,08,15,15,41,21.20
2018,08,15,15,42,21.10
2018,08,15,15,43,21.10
2018,08,15,15,44,21.00
2018,08,15,15,45,21.00
2018,08,15,15,46,21.00
2018,08,15,15,47,20.90
2018,08,15,15,48,20.90
2018,08,15,15,49,20.80
2018,08,15,15,50,20.80
2018,08,15,15,51,20.70
2018,08,15,15,52,20.70
2018,08,15,15,53,20.60
2018,08,15,15,54,20.60
2018,08,15,15,55,20.60
2018,08,15,15,56,20.60
2018,08,15,15,57,20.60
2018,08,15,15,59,20.70
2018,08,15,16,29,20.20
2018,08,15,16,30,20.20
2018,08,15,16,31,20.20
2018,08,15,16,32,20.20
2018,08,15,16,33,20.20
2018,08,15,16,34,20.20
2018,08,15,16,35,20.20
2018,08,15,16,36,20.20
2018,08,15,16,37,20.20
2018,08,15,16,38,20.20
2018,08,15,16,39,20.20
2018,08,15,16,40,20.10
2018,08,15,16,41,20.10
2018,08,15,16,42,19.90
2018,08,15,16,43,19.90
2018,08,15,16,44,19.80
2018,08,15,16,45,19.70
2018,08,15,16,46,19.50
2018,08,15,16,47,19.40
2018,08,15,16,48,19.20
2018,08,15,16,49,19.10
2018,08,15,16,50,18.90
2018,08,15,16,51,18.80
2018,08,15,16,52,18.70
2018,08,15,16,53,18.60
2018,08,15,16,54,18.40
2018,08,15,16,55,18.20
2018,08,15,16,56,18.20
2018,08,15,16,57,17.90
2018,08,15,16,59,17.70
2018,08,15,17,29,19.40
2018,08,15,17,30,19.40
2018,08,15,17,31,19.40
2018,08,15,17,32,19.30
2018,08,15,17,33,19.30
2018,08,15,17,34,19.20
2018,08,15,17,35,19.20
2018,08,15,17,36,19.10
2018,08,15,17,37,19.10
2018,08,15,17,38,19.10
2018,08,15,17,39,19.10
2018,08,15,17,40,18.90
2018,08,15,17,41,18.90
2018,08,15,17,42,18.90
2018,08,15,17,43,18.90
2018,08,15,17,44,18.80
2018,08,15,17,45,18.80
2018,08,15,17,46,18.70
2018,08,15,17,47,18.60
2018,08,15,17,48,18.40
2018,08,15,17,49,18.30
2018,08,15,17,50,18.20
2018,08,15,17,51,18.20
2018,08,15,17,52,17.90
2018,08,15,17,53,17.90
2018,08,15,17,54,17.80
2018,08,15,17,55,17.70
2018,08,15,17,56,17.70
2018,08,15,17,57,17.60
2018,08,15,17,58,17.50
2018,08,15,17,59,17.50
2018,08,15,18,00,17.40
2018,08,15,18,01,17.40
2018,08,15,18,03,17.40
2018,08,15,18,04,17.40
2018,08,15,18,29,20.20
2018,08,15,18,30,20.20
2018,08,15,19,29,20.10
2018,08,15,19,30,20.10
2018,08,15,19,31,19.90
2018,08,15,19,32,19.80
2018,08,15,19,33,19.70
2018,08,15,19,34,19.60
2018,08,15,19,35,19.40
2018,08,15,19,36,19.30
2018,08,15,19,37,19.20
2018,08,15,19,38,19.10
2018,08,15,19,39,18.90
2018,08,15,19,40,18.90
2018,08,15,19,41,18.80
2018,08,15,19,42,18.70
2018,08,15,19,43,18.60
2018,08,15,19,44,18.50
2018,08,15,19,45,18.40
2018,08,15,19,46,18.30
2018,08,15,19,47,18.20
2018,08,15,19,48,18.20
2018,08,15,19,49,18.10
2018,08,15,19,50,18.10
2018,08,15,19,51,17.90
2018,08,15,19,53,17.90
2018,08,15,19,54,17.80
2018,08,15,20,29,16.30
2018,08,15,20,30,16.20
2018,08,15,20,31,16.20
2018,08,15,20,32,16.20
2018,08,15,20,33,16.20
2018,08,15,20,34,16.20
2018,08,15,20,35,16.20
2018,08,15,20,36,16.10
2018,08,15,20,37,16.10
2018,08,15,20,38,16.10
2018,08,15,20,39,16.10
2018,08,15,20,40,16.10
2018,08,15,20,41,16.10
2018,08,15,20,42,16.10
2018,08,15,20,43,16.10
2018,08,15,20,44,16.10
2018,08,15,20,45,16.10
2018,08,15,20,46,15.90
2018,08,15,20,47,15.90
2018,08,15,20,48,15.90
2018,08,15,20,49,15.80
2018,08,15,20,50,15.80
2018,08,15,20,51,15.80
2018,08,15,20,52,15.80
2018,08,15,20,53,15.80
2018,08,15,20,54,15.70
2018,08,15,20,55,15.70
2018,08,15,20,57,15.70
2018,08,15,21,29,15.10
2018,08,15,21,30,15.10
2018,08,15,21,31,15.10
2018,08,15,21,32,15.10
2018,08,15,21,33,15.00
2018,08,15,21,34,15.00
2018,08,15,21,35,15.00
2018,08,15,21,36,15.00
2018,08,15,21,37,15.00
2018,08,15,21,38,15.00
2018,08,15,21,39,14.90
2018,08,15,21,40,14.90
2018,08,15,21,41,14.90
2018,08,15,21,42,14.90
2018,08,15,21,43,14.80
2018,08,15,21,44,14.80
2018,08,15,21,45,14.80
2018,08,15,21,46,14.80
2018,08,15,21,47,14.80
2018,08,15,21,48,14.80
2018,08,15,21,49,14.80
2018,08,15,21,50,14.80
2018,08,15,21,51,14.80
2018,08,15,21,52,14.70
2018,08,15,21,53,14.70
2018,08,15,21,54,14.70
2018,08,15,21,55,14.70
2018,08,15,21,57,14.70
2018,08,15,21,58,14.70
2018,08,15,21,59,14.60
2018,08,15,22,29,14.00
2018,08,15,22,30,14.00
2018,08,15,22,31,14.00
2018,08,15,22,32,14.00
2018,08,15,22,33,14.00
2018,08,15,22,34,13.90
2018,08,15,22,35,13.90
2018,08,15,22,36,13.90
2018,08,15,22,37,13.90
2018,08,15,22,38,13.90
2018,08,15,22,39,13.80
2018,08,15,22,40,13.80
2018,08,15,22,41,13.80
2018,08,15,22,42,13.80
2018,08,15,22,43,13.80
2018,08,15,22,44,13.70
2018,08,15,22,45,13.70
2018,08,15,22,46,13.70
2018,08,15,22,47,13.70
2018,08,15,22,48,13.70
2018,08,15,22,49,13.70
2018,08,15,22,50,13.70
2018,08,15,22,51,13.70
2018,08,15,22,52,13.70
2018,08,15,22,53,13.70
2018,08,15,22,54,13.70
2018,08,15,22,55,13.70
2018,08,15,22,56,13.70
2018,08,15,22,58,13.70
2018,08,15,22,59,13.70
2018,08,15,23,29,13.60
2018,08,15,23,30,13.60
2018,08,15,23,31,13.50
2018,08,15,23,32,13.50
2018,08,15,23,33,13.50
2018,08,15,23,34,13.40
2018,08,15,23,35,13.40
2018,08,15,23,36,13.30
2018,08,15,23,37,13.30
2018,08,15,23,38,13.30
2018,08,15,23,39,13.30
2018,08,15,23,40,13.30
2018,08,15,23,41,13.30
2018,08,15,23,42,13.20
2018,08,15,23,43,13.20
2018,08,15,23,44,13.20
2018,08,15,23,45,13.20
2018,08,15,23,46,13.20
2018,08,15,23,47,13.10
2018,08,15,23,48,13.10
2018,08,15,23,49,13.10
2018,08,15,23,50,13.10
2018,08,15,23,51,13.10
2018,08,15,23,52,13.00
2018,08,15,23,53,13.00
2018,08,15,23,54,13.00
2018,08,15,23,55,13.00
2018,08,15,23,56,13.00
2018,08,15,23,57,13.00
2018,08,15,23,58,12.90
2018,08,15,23,59,12.90
